This demonstration page uses our WeatherBlox Daily Observations layout. Learn more.

Left ArrowRight Arrow

41.86663, -103.66717

Hourly Observations for April 9, 2016

Temp ( °F °C ) Dew Point ( °F °C ) Humidity (%) Winds ( mph kmh ) Pressure ( in mb ) Visibility ( mi km ) Precip ( " mm )
12:53 am 00:53 Clear 41 5 27 -2.8 57 57 ESE 12 19 29.96 1014 10 16 N/A
1:53 am 01:53 Clear 39 3.9 27 -2.8 62 62 ESE 12 19 29.94 1014 10 16 N/A
2:53 am 02:53 Clear 37 2.8 26 -3.3 65 65 ESE 14 22 29.91 1013 10 16 N/A
3:53 am 03:53 Clear 35 1.7 26 -3.3 70 70 ESE 10 17 29.88 1012 10 16 N/A
4:53 am 04:53 Clear 35 1.7 26 -3.3 70 70 ESE 14 22 29.85 1011 10 16 N/A
5:53 am 05:53 Clear 33 0.6 25 -3.9 72 72 ESE 12 19 29.85 1011 10 16 N/A
6:53 am 06:53 Sunny 34 1.1 26 -3.3 73 73 ESE 12 19 29.83 1010 10 16 N/A
7:53 am 07:53 Sunny 41 5 28 -2.2 60 60 ESE 13 20 29.82 1010 10 16 N/A
8:53 am 08:53 Sunny 48 8.9 30 -1.1 50 50 SE 13 20 29.78 1009 10 16 N/A
9:53 am 09:53 Sunny 60 15.6 32 undefined 35 35 SSE 10 17 29.73 1007 10 16 N/A
10:53 am 10:53 Sunny 66 18.9 33 0.6 29 29 S 7 11 29.69 1005 10 16 N/A
11:53 am 11:53 Sunny 71 21.7 33 0.6 25 25 VRB 5 7 29.64 1004 10 16 N/A
12:53 pm 12:53 Sunny 75 23.9 33 0.6 22 22 VRB 6 9 29.59 1002 10 16 N/A
1:53 pm 13:53 Sunny 78 25.6 34 1.1 20 20 W 8 13 29.55 1001 10 16 N/A
2:53 pm 14:53 Sunny 82 27.8 32 undefined 16 16 W 15 24 29.50 999 10 16 N/A
3:53 pm 15:53 Hazy 76 24.4 28 -2.2 17 17 WSW 17 28 29.51 999 5 8 N/A
4:53 pm 16:53 Partly Cloudy 74 23.3 32 undefined 21 21 SSW 16 26 29.51 999 10 16 N/A
5:53 pm 17:53 Sunny 74 23.3 33 0.6 22 22 W 21 33 29.51 999 10 16 N/A
6:53 pm 18:53 Mostly Cloudy with Light Rain 68 20 35 1.7 30 30 N N/A 29.55 1001 10 16 N/A
7:53 pm 19:53 Mostly Cloudy with Nearby Thunderstorms 66 18.9 36 2.2 33 33 S 5 7 29.54 1000 10 16 N/A
8:14 pm 20:14 Mostly Cloudy with Light Rain 63 17 39 4 42 42 NNW 15 24 29.47 998 10 16 N/A
8:53 pm 20:53 Mostly Cloudy 66 18.9 38 3.3 36 36 N 15 24 29.54 1001 10 16 N/A
9:53 pm 21:53 Partly Cloudy 64 17.8 34 1.1 33 33 W 17 28 29.53 1000 10 16 N/A
10:53 pm 22:53 Mostly Cloudy 59 15 39 3.9 48 48 NNW 12 19 29.55 1001 10 16 N/A
11:42 pm 23:42 Cloudy 59 15 32 undefined 36 36 NE 10 17 29.56 1001 10 16 N/A
11:53 pm 23:53 Cloudy 57 13.9 34 1.1 42 42 NW 3 6 29.57 1001 10 16 N/A

Powered by AerisWeather